Home   Weather   Toronto   Past weeks

Flag for Canada Past Weather in Toronto, Ontario, Canada — Yesterday and Last 2 Weeks

Now
34 °F

Broken clouds.


Feels Like: 27 °F
Forecast: 32 / 41 °F
Wind: 8 mph from East

Location: Toronto Pearson International Airport

Current Time: Dec 6, 2016 at 9:25:51 am

Latest Report: Dec 6, 2016 at 8:00 am


Visibility: 10 mi

Pressure: 30.04 "Hg

Humidity: 87%

Dew Point: 30 °F

Location of TorontoLocation

Past Weather in Toronto — Graph

°F

Toronto Temperature Yesterday

Maximum temperature yesterday: 41 °F (at 12:00 pm)
Minimum temperature yesterday: 34 °F (at 12:00 am)
Average temperature yesterday: 37 °F

High & Low Weather Summary for the Past Weeks

 TemperatureHumidityPressure
High57 °F (Nov 29, 1:00 pm)100% (Nov 23, 10:00 pm)30.40 "Hg (Nov 23, 10:00 pm)
Low25 °F (Nov 22, 11:00 pm)44% (Nov 21, 12:00 pm)29.43 "Hg (Nov 30, 10:00 pm)
Average39 °F78%30.01 "Hg
* Reported Nov 21 8:00 am — Dec 6 8:00 am, Toronto, Weather by CustomWeather, © 2016

Note: Actual official high and low records may vary slightly from our data, if they occured in-between our weather recording intervals... More about our weather records

Advertising

Toronto Weather History for the Previous 24 Hours

Scroll right to see more
 ConditionsComfort  
Time TempWeatherWind HumidityBarometerVisibility
8:00 am
Tue, Dec 6
34 °FBroken clouds.8 mph87%30.04 "Hg10 mi
7:00 am32 °FPassing clouds.7 mph87%30.07 "Hg15 mi
6:00 am32 °FPassing clouds.No wind87%30.06 "Hg15 mi
5:00 am32 °FPassing clouds.3 mph93%30.08 "Hg15 mi
4:00 am32 °FPassing clouds.3 mph93%30.09 "Hg15 mi
3:00 am32 °FPassing clouds.5 mph87%30.10 "Hg15 mi
2:00 am34 °FPassing clouds.2 mph87%30.10 "Hg15 mi
1:00 am34 °FPassing clouds.7 mph81%30.09 "Hg15 mi
12:00 am36 °FPassing clouds.9 mph81%30.10 "Hg15 mi
11:00 pm
Mon, Dec 5
37 °FPassing clouds.12 mph75%30.09 "Hg15 mi
10:00 pm37 °FPassing clouds.12 mph75%30.08 "Hg15 mi
9:00 pm39 °FPassing clouds.14 mph75%30.07 "Hg15 mi
8:00 pm39 °FPassing clouds.9 mph70%30.07 "Hg15 mi
7:00 pm39 °FPassing clouds.12 mph70%30.06 "Hg15 mi
6:00 pm39 °FPassing clouds.9 mph70%30.05 "Hg15 mi
5:00 pm39 °FPassing clouds.10 mph65%30.02 "Hg15 mi
4:00 pm41 °FPartly sunny.17 mph61%30.01 "Hg15 mi
3:00 pm41 °FPartly sunny.14 mph66%29.99 "Hg15 mi
2:00 pm41 °FPartly sunny.20 mph66%29.96 "Hg15 mi
1:00 pm41 °FPartly sunny.15 mph66%29.94 "Hg15 mi
12:00 pm41 °FPartly sunny.13 mph70%29.94 "Hg15 mi
11:00 am39 °FPartly sunny.17 mph81%29.94 "Hg15 mi
10:00 am39 °FPartly sunny.25 mph75%29.91 "Hg15 mi
9:00 am37 °FPartly sunny.14 mph81%29.88 "Hg15 mi
Weather by CustomWeather, © 2016

See weather overviewHow to use our weather pages